Hourly Data Report for October 07, 2016

All times are specified in Local Standard Time (LST). Add 1 hour to adjust for Daylight Saving Time where and when it is observed.

ARVIAT A
NUNAVUT

61°05'38.000" N
94°04'18.000" W
10.40 m
2300427
71174
YEK

Related Data

No related data is available for this station

Download Data

Hourly Data (October 2016)
Hourly Data Report for October 7, 2016
Temp Definition
°C
Dew Point Temp Definition
°C
Rel Hum Definition
%
Wind Dir Definition
10's deg

Wind Spd Definition
km/h
Visibility Definition
km
Stn Press Definition
kPa
Hmdx Definition


Wind Chill Definition


Weather Definition


TIME
00:00 Legend Double Dagger -0.1 -1.4 91 36 17 16.1 102.60   -5 LegendNANA
01:00 Legend Double Dagger -0.4 -1.5 92 1 21 16.1 102.61   -6 LegendNANA
02:00 Legend Double Dagger -1.5 -1.5 100 35 15 16.1 102.62   -6 LegendNANA
03:00 Legend Double Dagger -1.6 -1.6 100 35 15 16.1 102.64   -6 LegendNANA
04:00 Legend Double Dagger -1.9 -1.9 100 34 13 16.1 102.67   -6 LegendNANA
05:00 Legend Double Dagger -2.6 -2.6 100 36 11 16.1 102.69   -7 LegendNANA
06:00 Legend Double Dagger -1.8 -2.1 98 1 13 16.1 102.69   -6 LegendNANA
07:00 Legend Double Dagger -2.6 -2.6 100 35 11 16.1 102.70   -7 LegendNANA
08:00 Legend Double Dagger -2.3 -2.3 100 36 9 16.1 102.72   -6 LegendNANA
09:00 Legend Double Dagger -2.8 -2.8 100 33 8 1.2 102.72   -6 Fog
10:00 Legend Double Dagger -3.0 -3.0 100 27 4 2.8 102.72   -5 Fog
11:00 Legend Double Dagger -2.0 -2.0 100 23 8 1.2 102.70   -5 Fog
12:00 Legend Double Dagger -0.7 -0.7 100 24 5 2.4 102.68   -2 Fog
13:00 Legend Double Dagger 0.7 0.2 96 LegendMM 4 16.1 102.66     LegendNANA
14:00 Legend Double Dagger 1.7 -1.4 80 35 8 16.1 102.63     LegendNANA
15:00 Legend Double Dagger 1.4 -1.6 81 33 17 16.1 102.64     LegendNANA
16:00 Legend Double Dagger 1.1 -3.3 73 31 15 16.1 102.66     LegendNANA
17:00 Legend Double Dagger 0.5 -1.1 89 34 15 16.1 102.65     LegendNANA
18:00 Legend Double Dagger 0.1 -1.4 90 35 17 16.1 102.62     Rain
19:00 Legend Double Dagger 0.1 -1.8 87 36 13 16.1 102.62     LegendNANA
20:00 Legend Double Dagger -0.1 -2.9 81 36 21 16.1 102.58   -6 LegendNANA
21:00 Legend Double Dagger -0.4 -4.5 74 36 21 16.1 102.52   -6 LegendNANA
22:00 Legend Double Dagger -0.9 -4.8 75 33 18 16.1 102.49   -6 LegendNANA
23:00 Legend Double Dagger -0.5 -5.3 70 35 18 16.1 102.47   -6 LegendNANA

Notes on Data Quality.

Legend

  • E = Estimated
  • M = Missing
  • NA = Not Available
  • ‡ = Partner data that is not subject to review by the National Climate Archives
Date modified: